WD9JR Weather Reports


time (UTC)temp
F
wind
direction
speed
knots
gust
knots
rain 1hr
in
rain 24hr
in
rain mn
in
humidity
%
barometer
mb
20260503184555 57 98 0.9 7.8 0.00 0.00 0.00 34 1016.0
20260503183058 57 105 0.9 10.4 0.00 0.00 0.00 33 1016.5
20260503181538 57 91 3.5 12.2 0.00 0.00 0.00 31 1016.9
20260503180042 58 64 2.6 10.4 0.00 0.00 0.00 32 1016.9
20260503174536 59 103 3.5 10.4 0.00 0.00 0.00 30 1017.2
20260503173100 59 45 5.2 10.4 0.00 0.00 0.00 29 1017.5
20260503171532 60 108 2.6 13.9 0.00 0.00 0.00 29 1017.6
20260503160120 59 106 2.6 7.8 0.00 0.00 0.00 33 1018.5
20260503081513 36 145 0.0 0.0 0.00 0.00 0.00 55 1018.7
20260503071510 35 145 0.0 0.9 0.00 0.00 0.00 55 1018.7
20260503054555 36 145 0.0 0.9 0.00 0.00 0.00 56 1019.1
20260503053054 36 145 0.0 0.0 0.00 0.00 0.00 57 1019.2
20260503051553 36 145 0.0 0.9 0.00 0.00 0.00 58 1019.3
20260503050049 35 145 0.0 0.9 0.00 0.00 0.00 59 1019.4
20260503044548 35 145 0.0 0.0 0.00 0.00 0.00 60 1019.2
20260503043047 35 145 0.0 0.0 0.00 0.00 0.00 61 1019.2
20260503041548 36 145 0.0 0.0 0.00 0.00 0.00 61 1019.1
20260503040050 36 145 0.0 0.0 0.00 0.00 0.00 62 1019.2
20260503034558 36 145 0.0 0.0 0.00 0.00 0.00 63 1019.2
20260503033044 37 145 0.0 0.0 0.00 0.00 0.00 63 1019.2
20260503031542 37 145 0.0 0.0 0.00 0.00 0.00 63 1019.3
20260503030050 37 145 0.0 0.0 0.00 0.00 0.00 62 1019.4
20260503024538 38 145 0.0 0.0 0.00 0.00 0.00 61 1019.3
20260503023037 39 145 0.0 0.0 0.00 0.00 0.00 59 1019.3
20260503021542 40 145 0.0 0.0 0.00 0.00 0.00 57 1019.2
20260503020040 40 145 0.0 0.0 0.00 0.00 0.00 57 1019.1
20260503014540 41 145 0.0 0.0 0.00 0.00 0.00 54 1018.9
20260503013036 41 145 0.0 0.0 0.00 0.00 0.00 50 1018.9
20260503011536 43 145 0.0 0.0 0.00 0.00 0.00 49 1018.8
20260503010040 45 145 0.0 0.0 0.00 0.00 0.00 46 1018.7
20260503004535 46 145 0.0 0.0 0.00 0.00 0.00 39 1018.6
20260503003037 47 145 0.0 0.0 0.00 0.00 0.00 38 1018.6
20260503001534 48 145 0.0 1.7 0.00 0.00 0.00 36 1018.5
20260503000035 49 145 0.0 2.6 0.00 0.00 0.00 34 1018.3
20260502234533 49 144 0.9 3.5 0.00 0.00 0.00 32 1018.2
20260502233036 49 150 3.5 6.1 0.00 0.00 0.00 34 1018.1
20260502231532 50 174 5.2 9.6 0.00 0.00 0.00 36 1018.3
20260502230030 49 153 3.5 6.1 0.00 0.00 0.00 33 1018.4
20260502224528 49 137 2.6 9.6 0.00 0.00 0.00 32 1018.4
20260502223028 50 150 5.2 10.4 0.00 0.00 0.00 31 1018.5
20260502221527 50 157 3.5 8.7 0.00 0.00 0.00 34 1018.5
20260502220028 50 162 2.6 6.1 0.00 0.00 0.00 33 1018.4
20260502214530 49 157 3.5 7.8 0.00 0.00 0.00 32 1018.4
20260502213023 50 156 6.1 11.3 0.00 0.00 0.00 35 1018.3
20260502211529 50 165 9.6 11.3 0.00 0.00 0.00 35 1018.2
20260502210020 50 174 4.3 9.6 0.00 0.00 0.00 36 1018.3
20260502204519 50 161 7.0 9.6 0.00 0.00 0.00 35 1018.4
20260502203018 50 184 3.5 9.6 0.00 0.00 0.00 36 1018.3
20260502201517 50 154 3.5 8.7 0.00 0.00 0.00 37 1018.5
20260502200014 50 150 4.3 10.4 0.00 0.00 0.00 35 1018.6
20260502194513 50 155 7.0 13.0 0.00 0.00 0.00 36 1018.7
20260502193013 50 189 7.8 13.0 0.00 0.00 0.00 43 1018.7
20260502191519 50 174 5.2 11.3 0.00 0.00 0.00 37 1018.9
20260502190024 50 203 4.3 11.3 0.00 0.00 0.00 38 1019.0